Estación de Chanco INIA
Ultimos registro cada 15 minutos 31
| N° | Estación | Fecha / Hora | Temperatura | Humedad | Lluvia | Velocidad | Dirección | Radiación | Presion |
| 31 | Chanco INIA | 10-05-2026 07:30 | 16,9 | 35,4 | 0 | 0,6 | 165 | 1 | 1000 |
| 30 | Chanco INIA | 10-05-2026 07:15 | 17,6 | 27,4 | 0 | 1,6 | 170 | 0 | 1000 |
| 29 | Chanco INIA | 10-05-2026 07:00 | 18,1 | 27,1 | 0 | 1,4 | 211 | 0 | 999 |
| 28 | Chanco INIA | 10-05-2026 06:45 | 18 | 25,9 | 0 | 0,2 | 208 | 0 | 999 |
| 27 | Chanco INIA | 10-05-2026 06:30 | 18,5 | 27,4 | 0 | 0,7 | 154 | 0 | 1000 |
| 26 | Chanco INIA | 10-05-2026 06:15 | 18,6 | 26 | 0 | 1,1 | 185 | 0 | 1000 |
| 25 | Chanco INIA | 10-05-2026 06:00 | 18,9 | 23,8 | 0 | 1,6 | 183 | 0 | 1000 |
| 24 | Chanco INIA | 10-05-2026 05:45 | 19,6 | 23,8 | 0 | 1,1 | 199 | 0 | 1000 |
| 23 | Chanco INIA | 10-05-2026 05:30 | 19,3 | 20,1 | 0 | 1,1 | 188 | 0 | 1000 |
| 22 | Chanco INIA | 10-05-2026 05:15 | 17,2 | 21 | 0 | 0,3 | 107 | 0 | 1000 |
| 21 | Chanco INIA | 10-05-2026 05:00 | 19 | 19,8 | 0 | 2 | 169 | 0 | 1000 |
| 20 | Chanco INIA | 10-05-2026 04:45 | 18,4 | 18,4 | 0 | 2,9 | 170 | 0 | 1000 |
| 19 | Chanco INIA | 10-05-2026 04:30 | 18,9 | 17,8 | 0 | 3,8 | 172 | 0 | 1000 |
| 18 | Chanco INIA | 10-05-2026 04:15 | 19,2 | 16,9 | 0 | 2,8 | 167 | 0 | 1000 |
| 17 | Chanco INIA | 10-05-2026 04:00 | 19,6 | 16,2 | 0 | 2,9 | 183 | 0 | 1000 |
| 16 | Chanco INIA | 10-05-2026 03:45 | 19,9 | 14,5 | 0 | 1,8 | 214 | 0 | 1000 |
| 15 | Chanco INIA | 10-05-2026 03:30 | 19,4 | 13,9 | 0 | 1 | 239 | 0 | 1000 |
| 14 | Chanco INIA | 10-05-2026 03:15 | 19,4 | 14,8 | 0 | 1,4 | 215 | 0 | 1000 |
| 13 | Chanco INIA | 10-05-2026 03:00 | 17,4 | 17,7 | 0 | 0,6 | 147 | 0 | 1000 |
| 12 | Chanco INIA | 10-05-2026 02:45 | 18,8 | 18 | 0 | 0,6 | 154 | 0 | 1000 |
| 11 | Chanco INIA | 10-05-2026 02:30 | 18,7 | 17,4 | 0 | 2,4 | 204 | 0 | 1001 |
| 10 | Chanco INIA | 10-05-2026 02:15 | 18,4 | 18,1 | 0 | 2,2 | 220 | 0 | 1001 |
| 9 | Chanco INIA | 10-05-2026 02:00 | 15,7 | 19,4 | 0 | 1,8 | 191 | 0 | 1001 |
| 8 | Chanco INIA | 10-05-2026 01:45 | 11,7 | 44,3 | 0 | 0 | 0 | 0 | 1001 |
| 7 | Chanco INIA | 10-05-2026 01:30 | 12,9 | 42,7 | 0 | 0 | 0 | 0 | 1001 |
| 6 | Chanco INIA | 10-05-2026 01:15 | 14,1 | 35,9 | 0 | 0,1 | 51 | 0 | 1001 |
| 5 | Chanco INIA | 10-05-2026 01:00 | 14 | 36,7 | 0 | 0 | 0 | 0 | 1001 |
| 4 | Chanco INIA | 10-05-2026 00:45 | 13,2 | 38,5 | 0 | 0,1 | 315 | 0 | 1001 |
| 3 | Chanco INIA | 10-05-2026 00:30 | 11,8 | 40,5 | 0 | 0 | 0 | 0 | 1001 |
| 2 | Chanco INIA | 10-05-2026 00:15 | 11,6 | 48,4 | 0 | 0,1 | 71 | 0 | 1002 |
| 1 | Chanco INIA | 10-05-2026 00:00 | 12,2 | 49,3 | 0 | 0,1 | 38 | 0 | 1002 |